CAPE
0 0 0 0 0 0 1 1 2 1 0 2 2 1 0 0 0 0 0 0 0 0 0 0 0 0 0 0 0 0 0 0 0 0 0 0 0 0 59 0 0 1 27 75 34 22 29
0 0 0 0 0 0 0 3 3 2 1 2 0 2 0 0 0 0 0 0 0 0 0 0 0 0 0 0 0 0 0 0 0 0 0 0 0 0 6 10 76 7 39 13 16 30 37
0 0 0 0 0 1 0 1 2 1 2 1 1 2 0 0 0 0 0 0 0 0 0 0 0 0 0 0 0 0 0 0 0 0 0 0 0 0 0 11 259 134 15 0 57 25 47
0 0 0 0 0 1 1 2 2 1 1 0 0 0 0 0 0 0 0 0 0 0 0 0 0 0 0 0 0 0 0 0 0 0 0 0 0 0 0 0 20 20 0 0 16 14 32
0 0 0 0 0 1 1 2 2 1 1 0 0 0 0 0 0 0 0 0 0 0 0 0 0 0 0 0 0 0 0 0 0 0 0 0 0 0 0 0 0 9 11 11 17 0 10
0 0 0 0 0 0 0 1 1 0 0 0 0 0 0 0 0 0 0 0 0 0 0 0 0 0 0 0 0 0 0 0 0 0 0 0 0 0 0 0 0 68 41 33 19 12 5
0 0 0 0 0 0 0 0 0 1 0 0 0 0 0 0 0 0 0 0 0 0 0 0 0 0 0 0 0 0 0 0 0 0 0 0 0 0 0 0 0 42 23 33 7 17 8
0 0 1 1 0 1 1 0 0 0 1 0 0 0 0 0 0 0 0 0 0 0 0 0 0 0 0 0 0 0 0 0 0 0 0 0 0 0 0 0 0 44 37 25 9 13 0
0 0 0 1 2 1 2 2 0 0 0 0 0 0 0 0 0 0 0 0 0 0 0 0 0 0 0 0 0 0 0 0 0 0 0 0 0 0 0 0 0 4 11 0 7 43 60
1 0 0 2 4 1 2 3 0 2 0 0 0 0 0 0 0 0 0 0 0 0 0 0 0 0 0 0 0 0 0 0 0 0 0 0 0 0 0 0 0 0 37 74 104 16 5
2 2 2 1 3 3 2 1 1 0 0 0 0 0 0 0 0 0 0 0 0 0 0 0 0 0 0 0 0 0 0 0 0 0 0 0 0 0 0 0 0 0 36 35 42 22 4
3 4 3 2 2 2 1 0 1 1 0 0 0 0 0 0 0 0 0 0 0 0 0 0 0 0 0 0 0 0 0 0 0 0 0 0 0 0 0 0 0 0 0 0 59 17 0
2 3 3 2 1 2 1 0 0 1 0 0 0 0 0 0 0 0 0 0 0 0 0 0 0 0 0 0 0 0 0 0 0 0 0 0 0 0 0 0 0 0 0 0 0 0 0
1 1 2 1 1 1 0 0 1 1 0 0 0 0 0 0 0 0 0 0 0 0 0 0 0 0 0 0 0 0 0 0 0 0 0 0 0 0 0 0 0 0 0 0 0 0 0
2 1 1 1 1 1 0 1 1 0 0 0 0 0 0 0 0 0 0 0 0 0 0 0 0 0 0 0 0 0 0 0 0 0 0 0 0 0 0 0 0 0 0 0 0 0 0
2 1 1 1 1 2 1 2 1 0 0 0 0 0 0 0 0 0 0 0 0 0 0 0 0 0 0 0 0 0 0 0 0 0 0 0 0 0 0 0 0 0 0 0 0 0 0
3 1 0 1 1 2 1 1 1 1 0 0 0 0 0 0 0 0 0 0 0 0 0 0 0 0 0 0 0 0 0 0 0 0 0 0 0 0 0 0 0 0 0 0 0 0 0
2 4 2 1 1 2 1 1 1 1 0 0 0 0 0 0 0 0 0 0 0 0 0 0 0 0 0 0 0 0 0 0 0 0 0 0 0 0 0 0 0 0 0 0 0 0 0
1 4 5 3 4 2 2 2 2 1 0 0 0 0 0 0 0 0 0 0 0 0 0 0 0 0 0 0 0 0 0 0 0 0 0 0 0 0 0 0 0 0 0 0 0 0 0
3 2 2 3 4 4 3 2 2 1 1 0 0 0 0 0 0 0 0 0 0 0 0 0 0 0 0 0 0 0 0 0 0 0 0 0 0 0 0 0 0 0 0 0 0 0 0
0 1 2 3 3 2 2 2 2 2 0 0 0 0 0 0 1 0 0 0 0 0 0 0 0 0 0 0 0 0 0 0 0 0 0 0 0 0 0 0 0 0 0 0 0 0 1
0 0 1 1 1 1 2 3 1 1 0 0 0 0 0 0 0 0 0 0 0 0 0 0 0 0 0 0 0 0 0 0 0 0 0 0 0 0 0 0 0 0 0 0 0 0 26
0 0 1 1 1 1 3 3 2 0 0 0 0 0 0 0 0 0 0 0 0 1 0 0 0 0 0 0 0 0 0 0 0 0 0 0 0 0 0 0 0 0 0 0 0 0 52
0 0 0 2 2 1 2 3 3 1 0 1 0 0 0 0 0 0 0 6 0 0 0 0 0 0 0 0 0 0 0 0 0 0 0 0 0 0 0 0 0 0 0 0 77 410 749
1 0 1 1 2 2 0 3 2 2 1 2 0 0 0 0 0 0 0 0 0 0 0 0 0 0 0 0 0 0 0 0 0 0 0 0 0 0 0 0 0 0 24 39 73 217 587
1 0 1 1 1 4 1 3 3 2 1 1 1 0 0 0 0 0 0 0 0 0 0 0 0 0 0 0 0 0 0 0 0 0 0 0 0 0 0 0 0 1 40 19 107 118 168
1 1 1 1 1 2 4 2 3 2 1 1 0 0 0 1 0 0 0 0 0 0 0 0 0 0 0 0 0 0 0 0 0 0 0 0 0 0 0 0 3 6 2 0 0 52 145
1 1 0 1 1 1 3 8 3 2 3 0 0 0 0 0 0 0 0 0 0 0 0 0 0 0 0 0 0 0 0 0 0 0 0 0 0 0 0 0 0 11 1 14 182 137 144
4 4 3 2 2 2 2 5 7 3 3 0 0 0 0 3 0 0 0 0 0 0 0 0 0 0 0 0 4 9 43 22 8 3 0 0 0 0 0 4 34 80 75 71 85 86 48
CIN
0 0 0 0 0 0 0 0 0 0 0 0 0 0 0 0 0 0 0 0 0 0 0 0 0 0 0 0 0 0 0 0 0 0 0 0 0 0 -63 0 0 -82 -227 -144 -95 -39 -20
0 0 0 0 0 0 0 0 0 0 0 0 -1 0 0 0 0 0 0 0 0 0 0 0 0 0 0 0 0 0 0 0 0 0 0 0 0 0 -22 -68 -71 -47 -150 -84 -63 -22 -13
0 0 0 0 0 0 0 0 0 0 0 0 0 0 0 0 0 0 0 0 0 0 0 0 0 0 0 0 0 0 0 0 0 0 0 0 0 0 0 -57 -71 -73 -85 -5 -45 -38 -37
0 0 0 0 0 0 0 0 0 0 0 0 0 -1 0 0 0 0 0 0 0 0 0 0 0 0 0 0 0 0 0 0 0 0 0 0 0 0 0 0 -35 -45 0 0 -41 -65 -16
0 0 0 0 0 0 0 0 0 0 0 0 0 0 0 0 0 0 0 0 0 0 0 0 0 0 0 0 0 0 0 0 0 0 0 0 0 0 0 0 0 -19 -17 -19 -28 -1 -45
0 0 0 0 0 0 0 0 0 0 0 0 0 0 0 0 0 0 0 0 0 0 0 0 0 0 0 0 0 0 0 0 0 0 0 0 0 0 0 0 0 -10 -15 -22 -19 -34 -41
0 0 0 0 0 0 0 0 0 0 0 0 0 0 0 0 0 0 0 0 0 0 0 0 0 0 0 0 0 0 0 0 0 0 0 0 0 0 0 0 0 -5 -3 -23 -13 -58 -60
0 0 0 0 0 0 0 0 0 0 0 0 0 0 0 0 0 0 0 0 0 0 0 0 0 0 0 0 0 0 0 0 0 0 0 0 0 0 0 0 0 -3 -8 -13 -22 -61 -2
0 0 0 0 0 0 0 0 0 0 0 0 0 0 0 0 0 0 0 0 0 0 0 0 0 0 0 0 0 0 0 0 0 0 0 0 0 0 0 0 0 -3 -14 -13 -22 -5 -60
0 0 0 0 0 0 0 0 0 0 0 0 0 0 0 0 0 0 0 0 0 0 0 0 0 0 0 0 0 0 0 0 0 0 0 0 0 0 0 0 0 0 -32 -36 -16 -4 -47
0 0 0 0 0 0 0 0 0 0 0 0 0 0 0 0 0 0 0 0 0 0 0 0 0 0 0 0 0 0 0 0 0 0 0 0 0 0 0 0 0 0 -11 -11 -11 -8 -16
0 0 0 0 0 0 0 0 0 0 0 0 0 0 0 0 0 0 0 0 0 0 0 0 0 0 0 0 0 0 0 0 0 0 0 0 0 0 0 0 0 0 0 0 -12 -18 0
0 0 0 0 0 0 0 0 0 0 0 0 0 0 0 0 0 0 0 0 0 0 0 0 0 0 0 0 0 0 0 0 0 0 0 0 0 0 0 0 0 0 0 0 0 0 0
0 0 0 0 0 0 0 0 0 0 0 0 0 0 0 0 0 0 0 0 0 0 0 0 0 0 0 0 0 0 0 0 0 0 0 0 0 0 0 0 0 0 0 0 0 0 0
0 0 0 0 0 0 0 0 0 0 0 0 0 0 0 0 0 0 0 0 0 0 0 0 0 0 0 0 0 0 0 0 0 0 0 0 0 0 0 0 0 0 0 0 0 0 0
0 0 0 0 0 0 0 0 0 0 0 0 0 0 0 0 0 0 0 0 0 0 0 0 0 0 0 0 0 0 0 0 0 0 0 0 0 0 0 0 0 0 0 0 0 0 0
0 0 0 0 0 0 0 0 0 0 0 0 0 0 0 0 0 0 0 0 0 0 0 0 0 0 0 0 0 0 0 0 0 0 0 0 0 0 0 0 0 0 0 0 0 0 0
0 0 0 0 0 0 0 0 0 0 0 0 0 0 0 0 0 0 0 0 0 0 0 0 0 0 0 0 0 0 0 0 0 0 0 0 0 0 0 0 0 0 0 0 0 0 0
0 0 0 0 0 0 0 0 0 0 0 0 0 0 0 0 0 0 0 0 0 0 0 0 0 0 0 0 0 0 0 0 0 0 0 0 0 0 0 0 0 0 0 0 0 0 0
0 0 0 0 0 0 0 0 0 0 0 0 0 0 0 0 0 0 0 0 0 0 0 0 0 0 0 0 0 0 0 0 0 0 0 0 0 0 0 0 0 0 0 0 0 0 0
0 0 0 0 0 0 0 0 0 0 0 0 0 0 0 0 -2 -5 0 0 0 0 0 0 0 0 0 0 0 0 0 0 0 0 0 0 0 0 0 0 0 0 0 0 0 0 -12
0 0 -1 0 0 0 0 0 0 0 0 0 0 0 0 0 0 0 0 0 0 -1 0 0 0 0 0 0 0 0 0 0 0 0 0 0 0 0 0 0 0 0 0 0 0 0 -4
0 0 0 -1 -1 0 0 0 0 0 0 0 0 0 0 0 0 0 0 0 0 -27 0 0 0 0 0 0 0 0 0 0 0 0 0 0 0 0 0 0 0 0 0 0 0 0 -50
0 0 0 0 -1 0 0 0 0 0 0 0 0 0 0 0 0 0 0 -7 0 0 0 0 0 -6 0 0 0 0 0 0 0 0 0 0 0 0 0 0 0 0 0 0 -76 -147 -71
0 0 0 0 0 0 0 0 0 0 0 0 0 0 0 0 0 0 0 0 0 0 0 0 0 0 0 0 0 0 0 0 0 0 0 0 0 0 0 0 0 0 -83 -67 -33 -175 -151
0 0 0 -1 0 -1 -1 0 0 0 0 0 0 0 0 0 0 0 0 0 0 0 0 0 0 0 0 0 0 0 0 0 0 0 0 0 0 0 0 0 0 -5 -103 -157 -72 -88 -251
0 0 0 0 0 0 0 0 0 0 0 0 0 0 0 0 0 0 0 0 0 0 0 0 0 0 0 0 0 0 0 0 0 0 0 0 0 0 0 0 -17 -57 -70 0 0 -131 -264
0 0 -2 -1 -1 -1 -1 -1 0 0 0 0 0 0 0 0 0 0 0 0 0 0 0 0 0 0 0 0 0 0 0 0 0 0 0 0 0 0 0 0 0 -62 -11 -42 -153 -190 -215
0 0 0 0 0 0 -2 -1 -1 0 0 0 0 0 0 0 0 0 0 0 0 0 0 0 0 -1 0 0 -2 -14 -14 -28 -3 -2 0 0 0 0 0 -27 -127 -132 -125 -178 -170 -216 -292
Wind_Speed
10 11 11 12 15 16 17 18 19 17 19 23 23 25 24 25 26 26 26 26 25 25 24 24 22 21 16 13 15 13 10 11 14 12 18 20 18 17 13 11 15 25 18 19 15 20 16
9 11 11 11 12 15 15 14 14 12 14 18 18 23 25 26 25 27 27 26 25 25 24 23 22 19 13 17 10 10 8 5 5 12 19 24 19 22 9 7 8 26 20 16 12 19 9
9 10 11 13 15 18 19 20 17 15 17 18 18 19 22 24 26 27 27 26 25 24 23 22 19 16 16 14 12 9 7 5 6 10 25 25 24 18 17 6 22 22 13 19 9 4 10
11 10 11 12 14 17 19 19 17 16 16 17 18 19 18 22 24 26 26 25 24 24 22 20 16 15 14 12 17 7 6 4 15 26 27 22 19 20 18 14 10 10 24 17 7 11 15
12 10 11 11 11 13 13 13 14 14 14 16 15 15 16 20 24 25 25 21 16 9 15 16 15 14 20 16 15 9 3 3 3 13 21 22 18 20 20 19 21 10 12 18 10 9 12
15 14 13 13 12 11 11 11 13 14 13 12 11 11 14 16 20 23 23 19 17 20 13 10 11 17 18 15 12 9 8 9 9 11 18 17 17 20 20 21 20 14 13 20 21 20 12
17 17 15 15 15 13 11 10 9 12 13 12 12 11 12 13 15 16 14 13 14 14 9 8 15 13 13 10 8 10 9 12 8 11 14 16 19 22 25 26 27 17 18 20 14 5 8
20 18 17 15 15 15 13 12 11 11 12 13 13 12 13 13 13 9 12 15 14 11 9 7 11 3 14 8 9 10 9 12 12 16 14 22 22 23 26 29 29 16 12 20 21 9 21
22 21 21 20 18 18 18 15 12 12 12 12 12 13 13 16 15 11 10 9 10 9 10 5 11 4 7 8 9 11 9 14 16 19 19 21 20 22 29 29 29 21 14 15 27 17 15
23 23 25 23 19 19 21 20 14 12 13 13 14 14 15 20 13 15 11 9 12 16 11 11 9 7 7 7 15 8 7 14 18 20 22 25 31 24 25 30 26 30 14 11 25 16 19
33 29 27 25 24 21 24 24 22 21 19 16 17 16 12 9 8 12 12 17 19 15 19 15 12 12 10 6 14 1 4 18 25 23 20 27 26 27 28 27 23 21 12 17 20 23 22
39 34 33 34 36 35 32 32 30 22 23 21 22 17 15 16 11 9 8 9 14 14 16 12 13 10 7 6 7 4 8 16 24 28 29 30 28 24 28 22 21 23 26 26 17 19 26
41 40 40 39 38 35 34 36 22 21 24 25 25 21 9 9 11 14 15 12 14 14 14 11 10 10 6 5 4 5 13 18 24 23 27 27 29 24 17 22 24 29 28 28 29 26 25
40 39 39 38 36 34 34 35 36 30 27 30 29 25 10 6 7 10 10 12 13 10 5 12 9 9 5 5 2 4 12 19 23 30 28 22 30 25 17 22 24 29 26 27 27 32 29
39 38 37 36 35 34 34 35 38 40 40 40 36 21 12 10 6 7 10 9 10 18 21 12 10 5 4 2 4 2 11 14 19 25 29 24 28 25 18 22 25 26 26 28 31 31 32
38 37 36 35 34 34 34 36 38 40 39 39 29 19 10 4 9 9 8 8 8 11 15 18 10 8 2 1 1 3 8 18 22 18 15 20 25 20 15 14 25 25 22 26 27 31 32
37 36 35 34 33 34 34 36 38 39 40 37 22 21 12 10 8 10 10 10 10 16 13 15 13 12 11 12 5 4 11 15 12 13 14 17 18 16 10 18 21 23 28 23 24 27 27
35 35 34 34 34 34 35 35 36 37 40 29 21 19 7 8 11 12 10 10 10 13 15 16 15 20 21 17 9 9 13 16 13 12 15 15 19 23 24 15 20 27 26 25 25 27 28
35 35 34 34 34 34 34 34 33 34 33 28 24 18 12 7 17 15 11 10 11 15 21 16 14 21 20 23 16 10 12 15 13 14 16 16 18 24 20 14 15 22 26 27 29 28 34
34 35 35 34 33 33 32 32 31 31 30 26 21 20 14 6 11 16 19 21 22 20 15 20 20 22 23 22 21 10 9 12 13 14 12 15 19 19 22 25 26 29 28 27 24 30 32
35 35 34 33 33 32 31 30 29 29 28 23 18 17 25 20 23 27 25 23 20 22 24 15 23 22 24 19 22 16 6 9 13 13 16 15 23 25 26 26 27 24 23 30 28 24 19
36 36 34 33 33 32 31 29 28 27 26 20 21 24 25 27 26 26 25 24 24 24 26 19 18 25 27 21 23 21 21 13 16 16 18 19 22 21 27 27 26 27 24 25 27 23 17
37 37 35 33 33 31 30 27 25 24 22 20 22 24 24 22 25 25 24 27 30 29 32 28 18 23 28 20 20 16 15 12 12 15 17 20 21 22 29 26 28 26 21 20 16 17 14
38 38 36 34 33 31 29 26 23 21 18 20 22 23 23 27 25 26 28 32 31 32 27 27 27 21 16 16 21 16 15 13 14 10 8 17 20 21 24 23 34 25 25 24 10 12 10
39 38 36 35 32 30 28 26 23 20 17 18 20 21 22 26 25 28 29 33 32 32 28 26 17 19 12 15 16 16 20 20 18 19 20 19 18 23 28 25 27 28 22 20 21 17 12
40 38 36 34 33 30 28 26 22 20 18 18 19 18 20 25 26 27 29 27 29 30 23 24 19 23 16 15 17 20 19 21 23 24 25 25 24 22 20 27 31 25 22 23 15 20 15
40 38 37 35 33 31 28 26 24 21 18 17 20 14 20 24 26 25 25 25 22 22 28 25 19 20 16 16 22 26 24 24 25 22 18 20 23 22 25 23 20 21 22 25 25 22 14
40 37 35 33 31 30 28 26 24 21 18 15 21 14 18 24 26 22 19 20 24 24 23 20 15 19 16 21 25 25 23 23 28 21 13 14 17 18 18 24 28 20 18 19 12 11 12
38 36 34 32 30 28 26 24 22 20 17 13 21 16 16 23 27 24 21 17 23 16 18 21 23 20 16 21 22 21 21 20 20 14 9 13 13 13 16 16 9 10 8 9 11 13 17
Wind_Direction
33 22 357 341 327 319 311 308 304 300 301 305 304 306 302 301 299 299 297 294 289 288 288 289 282 285 312 311 306 337 346 293 263 269 247 250 257 267 357 41 127 166 198 202 223 201 106
20 24 15 3 339 328 319 312 305 297 296 299 296 298 301 303 298 300 297 293 291 291 291 296 297 300 324 282 3 7 22 358 329 267 248 234 263 272 345 9 338 198 201 209 269 208 53
344 355 351 338 329 326 325 322 315 309 305 302 298 294 294 296 297 297 297 292 288 289 297 305 312 315 304 306 353 10 15 334 97 112 220 238 260 288 301 19 202 209 136 245 335 314 242
330 338 341 337 329 322 321 320 315 310 308 305 301 297 292 293 293 294 291 285 282 291 308 318 332 321 313 322 298 17 53 48 146 194 232 272 278 274 280 286 297 323 241 237 342 104 280
323 334 335 336 332 324 318 317 313 310 308 307 300 292 291 291 294 293 288 272 243 32 357 337 332 329 301 310 297 315 30 58 0 286 268 262 281 268 269 274 268 284 284 268 290 280 295
311 314 319 320 321 321 320 313 309 310 311 310 305 293 289 288 289 291 285 260 2 341 22 37 359 327 304 311 305 301 301 299 307 299 277 281 282 267 265 269 263 269 281 278 276 269 272
305 305 309 310 310 312 315 315 310 305 310 312 307 299 291 287 283 278 265 83 66 73 84 79 329 5 354 324 324 292 289 294 303 295 281 275 269 260 255 255 255 292 279 278 273 337 291
301 300 300 303 304 302 304 306 306 300 305 307 306 302 291 287 279 244 81 64 55 54 49 176 177 1 351 348 316 294 287 284 282 277 281 268 264 263 257 251 259 286 286 267 257 271 283
303 300 298 296 297 297 297 298 298 291 297 302 303 301 293 287 275 78 79 80 61 62 59 72 152 56 353 354 324 288 279 272 277 274 272 268 268 262 256 258 262 270 273 285 249 279 279
303 302 301 298 293 293 295 295 291 288 290 296 298 298 291 292 61 54 66 99 50 33 61 52 72 67 131 349 308 286 283 272 275 272 271 269 253 264 260 260 264 263 274 269 259 268 264
308 304 301 298 296 291 294 296 294 290 287 290 292 291 285 45 76 67 55 35 26 40 31 67 62 58 87 76 344 164 292 268 263 272 273 264 264 263 267 259 270 262 291 273 272 259 267
322 310 308 310 316 346 313 312 303 291 290 289 289 283 279 40 67 87 59 62 40 47 27 79 50 46 72 117 32 87 291 274 273 266 268 262 268 271 269 272 268 261 265 272 272 267 261
329 328 330 331 334 347 350 345 293 291 291 291 289 281 24 52 63 35 16 41 43 36 63 66 53 49 88 91 99 58 290 274 266 267 266 264 264 279 275 265 262 252 262 262 256 258 268
337 337 335 338 343 349 347 342 325 301 295 297 293 282 30 77 68 40 49 39 24 50 33 56 70 47 82 109 124 96 302 275 267 257 268 268 260 264 276 265 263 255 258 256 256 254 265
339 339 341 342 344 346 346 341 335 331 320 317 310 2 20 39 80 68 40 19 36 15 2 17 32 39 36 145 34 23 308 282 270 264 264 278 273 266 260 264 259 263 253 259 267 267 271
338 341 342 343 344 343 343 340 335 329 318 328 348 4 14 80 76 44 16 355 352 355 358 352 5 358 12 206 309 22 309 283 273 272 281 280 283 265 252 262 263 261 265 258 260 259 261
337 339 343 345 344 342 342 337 337 332 323 325 359 354 39 67 43 3 337 337 332 334 345 335 333 331 320 310 217 307 309 297 297 288 282 281 283 280 259 266 269 257 258 267 266 260 258
338 338 339 340 340 339 339 338 341 340 333 350 354 349 35 34 350 346 325 329 334 324 341 331 303 307 306 294 278 280 288 289 297 297 279 285 278 275 267 277 270 259 261 260 259 258 255
336 336 336 336 336 336 336 337 341 343 350 351 342 338 341 359 331 325 321 310 295 310 322 329 307 298 293 300 286 285 285 294 293 286 284 276 276 269 274 279 274 262 260 262 258 261 255
334 333 333 333 333 333 334 335 338 341 343 347 345 338 344 311 326 329 319 318 317 322 310 311 308 293 291 297 289 295 287 294 296 294 307 278 263 268 267 270 276 264 253 256 267 256 258
330 329 329 331 330 329 330 332 334 335 337 342 339 329 331 326 322 322 322 322 308 310 314 300 299 294 292 282 282 272 280 295 291 293 293 279 262 264 267 278 281 280 260 253 260 260 272
325 324 325 326 326 327 326 326 329 331 332 330 323 325 322 314 314 315 316 314 312 305 302 305 288 285 288 283 273 282 270 277 282 284 278 277 266 269 263 270 277 275 269 268 257 262 280
322 320 321 321 322 323 323 325 325 328 330 324 320 320 319 313 313 310 308 307 306 299 292 291 289 282 276 284 286 286 294 287 275 279 270 272 269 266 259 267 273 269 267 279 282 275 285
319 318 318 317 316 317 318 319 320 321 322 319 317 319 315 307 307 306 306 303 302 292 300 276 298 291 278 283 276 282 277 305 294 290 284 276 268 269 263 263 257 262 276 284 294 312 305
316 317 316 315 314 313 313 314 315 315 315 311 315 314 310 304 308 305 302 299 300 290 286 282 296 302 294 285 274 273 263 269 277 274 272 283 283 271 259 258 268 261 277 281 273 275 305
315 315 315 314 312 310 309 308 309 309 307 306 305 306 307 305 302 302 301 300 297 294 286 276 270 289 295 274 270 266 258 263 268 274 273 277 274 270 270 260 259 267 275 278 282 264 292
315 314 312 311 310 308 306 305 303 301 300 299 302 297 301 299 300 300 301 301 301 290 280 285 266 275 286 270 267 262 263 268 267 268 268 270 267 262 263 268 273 280 279 277 265 266 287
313 313 313 311 310 308 306 302 300 297 295 290 298 288 291 296 297 300 300 298 291 281 277 280 272 267 271 260 257 260 268 263 262 270 258 274 265 266 268 264 265 285 288 278 278 290 294
315 314 312 310 308 306 304 302 299 296 292 283 293 291 286 293 298 301 296 294 284 277 274 267 265 270 264 261 269 262 263 263 276 272 276 272 270 270 283 272 304 321 314 303 298 294 297